• Em Portugal
  • Lista de países
  • Para 7 dias
  • Temperatura da água
  • Mapas de satélite
  • Mapa do tempo
  • Widgets de tempo
  • user-avatar
    Iniciar Sessão

    Previsão horária em Karibib

    Hoje, 20 Junho, Quarta-feira

    Tempo Temperatura Precipitação Vento Pressão Humidade
    00:00 +14°C° 0 mm 1 m/s 666 mmHg 36%
    01:00 +13°C° 0 mm 0 m/s 665 mmHg 37%
    02:00 +14°C° 0 mm 1 m/s 665 mmHg 37%
    03:00 +13°C° 0 mm 1 m/s 665 mmHg 36%
    04:00 +13°C° 0 mm 1 m/s 665 mmHg 36%
    05:00 +13°C° 0 mm 1 m/s 665 mmHg 36%
    06:00 +13°C° 0 mm 1 m/s 665 mmHg 35%
    07:00 +14°C° 0 mm 1 m/s 666 mmHg 34%
    08:00 +18°C° 0 mm 1 m/s 666 mmHg 28%
    09:00 +21°C° 0 mm 1 m/s 667 mmHg 23%
    10:00 +24°C° 0 mm 2 m/s 668 mmHg 18%
    11:00 +25°C° 0 mm 2 m/s 668 mmHg 16%
    12:00 +26°C° 0 mm 2 m/s 668 mmHg 15%
    13:00 +27°C° 0 mm 1 m/s 668 mmHg 13%
    14:00 +27°C° 0 mm 2 m/s 668 mmHg 13%
    15:00 +27°C° 0 mm 2 m/s 668 mmHg 13%
    16:00 +28°C° 0 mm 2 m/s 667 mmHg 13%
    17:00 +25°C° 0 mm 2 m/s 667 mmHg 17%
    18:00 +23°C° 0 mm 2 m/s 667 mmHg 22%
    19:00 +19°C° 0 mm 2 m/s 667 mmHg 26%
    20:00 +18°C° 0 mm 2 m/s 667 mmHg 28%
    21:00 +18°C° 0 mm 1 m/s 667 mmHg 30%
    22:00 +16°C° 0 mm 1 m/s 667 mmHg 33%
    23:00 +16°C° 0 mm 1 m/s 667 mmHg 33%

    Amanhã, 21 Junho, Quinta-feira

    Tempo Temperatura Precipitação Vento Pressão Humidade
    00:00 +15°C° 0 mm 1 m/s 667 mmHg 34%
    01:00 +14°C° 0 mm 0 m/s 666 mmHg 34%
    02:00 +14°C° 0 mm 1 m/s 666 mmHg 34%
    03:00 +14°C° 0 mm 1 m/s 666 mmHg 34%
    04:00 +14°C° 0 mm 1 m/s 666 mmHg 33%
    05:00 +14°C° 0 mm 1 m/s 666 mmHg 33%
    06:00 +14°C° 0 mm 1 m/s 666 mmHg 32%
    07:00 +14°C° 0 mm 1 m/s 667 mmHg 31%
    08:00 +17°C° 0 mm 2 m/s 668 mmHg 26%
    09:00 +20°C° 0 mm 2 m/s 669 mmHg 21%
    10:00 +24°C° 0 mm 2 m/s 670 mmHg 16%
    11:00 +26°C° 0 mm 2 m/s 670 mmHg 15%
    12:00 +27°C° 0 mm 1 m/s 669 mmHg 14%
    13:00 +28°C° 0 mm 1 m/s 669 mmHg 12%
    14:00 +28°C° 0 mm 1 m/s 669 mmHg 12%
    15:00 +28°C° 0 mm 1 m/s 669 mmHg 13%
    16:00 +28°C° 0 mm 2 m/s 669 mmHg 13%
    17:00 +26°C° 0 mm 2 m/s 668 mmHg 16%
    18:00 +23°C° 0 mm 2 m/s 668 mmHg 19%
    19:00 +20°C° 0 mm 2 m/s 668 mmHg 22%
    20:00 +19°C° 0 mm 2 m/s 668 mmHg 24%
    21:00 +18°C° 0 mm 2 m/s 668 mmHg 25%
    22:00 +18°C° 0 mm 1 m/s 668 mmHg 27%
    23:00 +18°C° 0 mm 1 m/s 668 mmHg 27%

    Depois de amanhã, 22 Junho, Sexta-feira

    Tempo Temperatura Precipitação Vento Pressão Humidade
    00:00 +16°C° 0 mm 1 m/s 668 mmHg 27%
    01:00 +16°C° 0 mm 1 m/s 668 mmHg 28%
    02:00 +16°C° 0 mm 1 m/s 667 mmHg 27%
    03:00 +16°C° 0 mm 1 m/s 667 mmHg 27%
    04:00 +15°C° 0 mm 2 m/s 667 mmHg 26%
    05:00 +15°C° 0 mm 2 m/s 667 mmHg 26%
    06:00 +15°C° 0 mm 2 m/s 667 mmHg 27%
    07:00 +15°C° 0 mm 2 m/s 667 mmHg 27%
    08:00 +18°C° 0 mm 2 m/s 668 mmHg 23%
    09:00 +21°C° 0 mm 3 m/s 669 mmHg 20%
    10:00 +25°C° 0 mm 3 m/s 670 mmHg 16%
    11:00 +26°C° 0 mm 3 m/s 670 mmHg 15%
    12:00 +27°C° 0 mm 3 m/s 670 mmHg 14%
    13:00 +29°C° 0 mm 3 m/s 669 mmHg 13%
    14:00 +29°C° 0 mm 2 m/s 669 mmHg 13%
    15:00 +29°C° 0 mm 2 m/s 669 mmHg 13%
    16:00 +28°C° 0 mm 1 m/s 668 mmHg 13%
    17:00 +26°C° 0 mm 2 m/s 668 mmHg 15%
    18:00 +24°C° 0 mm 2 m/s 668 mmHg 18%
    19:00 +20°C° 0 mm 2 m/s 667 mmHg 21%
    20:00 +20°C° 0 mm 1 m/s 668 mmHg 22%
    21:00 +20°C° 0 mm 1 m/s 668 mmHg 24%
    22:00 +19°C° 0 mm 1 m/s 668 mmHg 25%
    23:00 +18°C° 0 mm 1 m/s 667 mmHg 26%

    23 Junho, Sábado

    Tempo Temperatura Precipitação Vento Pressão Humidade
    00:00 +18°C° 0 mm 1 m/s 667 mmHg 27%
    01:00 +16°C° 0 mm 1 m/s 667 mmHg 27%
    02:00 +16°C° 0 mm 1 m/s 667 mmHg 27%
    03:00 +16°C° 0 mm 1 m/s 666 mmHg 27%
    04:00 +15°C° 0 mm 1 m/s 666 mmHg 27%
    05:00 +15°C° 0 mm 1 m/s 667 mmHg 27%
    06:00 +15°C° 0 mm 2 m/s 667 mmHg 27%
    07:00 +15°C° 0 mm 2 m/s 667 mmHg 27%
    08:00 +18°C° 0 mm 2 m/s 668 mmHg 23%
    09:00 +21°C° 0 mm 3 m/s 669 mmHg 20%
    10:00 +25°C° 0 mm 3 m/s 670 mmHg 16%
    11:00 +26°C° 0 mm 3 m/s 669 mmHg 15%
    12:00 +27°C° 0 mm 2 m/s 669 mmHg 14%
    13:00 +28°C° 0 mm 2 m/s 668 mmHg 13%
    14:00 +28°C° 0 mm 2 m/s 668 mmHg 13%
    15:00 +28°C° 0 mm 1 m/s 668 mmHg 13%
    16:00 +28°C° 0 mm 1 m/s 668 mmHg 13%
    17:00 +26°C° 0 mm 1 m/s 667 mmHg 16%
    18:00 +24°C° 0 mm 2 m/s 667 mmHg 18%
    19:00 +20°C° 0 mm 2 m/s 667 mmHg 21%
    20:00 +20°C° 0 mm 1 m/s 667 mmHg 23%
    21:00 +19°C° 0 mm 1 m/s 667 mmHg 24%
    22:00 +18°C° 0 mm 1 m/s 666 mmHg 26%
    23:00 +18°C° 0 mm 1 m/s 666 mmHg 26%

    24 Junho, Domingo

    Tempo Temperatura Precipitação Vento Pressão Humidade
    00:00 +18°C° 0 mm 1 m/s 666 mmHg 27%
    01:00 +16°C° 0 mm 1 m/s 666 mmHg 27%
    02:00 +16°C° 0 mm 1 m/s 665 mmHg 27%
    03:00 +16°C° 0 mm 2 m/s 665 mmHg 27%
    04:00 +16°C° 0 mm 2 m/s 665 mmHg 27%
    05:00 +16°C° 0 mm 2 m/s 666 mmHg 27%
    06:00 +16°C° 0 mm 3 m/s 666 mmHg 28%
    07:00 +14°C° 0 mm 3 m/s 666 mmHg 29%
    08:00 +18°C° 0 mm 4 m/s 667 mmHg 26%
    09:00 +20°C° 0 mm 4 m/s 668 mmHg 22%
    10:00 +23°C° 0 mm 5 m/s 668 mmHg 19%
    11:00 +25°C° 0 mm 4 m/s 668 mmHg 17%
    12:00 +27°C° 0 mm 4 m/s 668 mmHg 16%
    13:00 +28°C° 0 mm 4 m/s 667 mmHg 14%
    14:00 +28°C° 0 mm 3 m/s 667 mmHg 14%
    15:00 +28°C° 0 mm 3 m/s 667 mmHg 14%
    16:00 +28°C° 0 mm 2 m/s 666 mmHg 13%
    17:00 +26°C° 0 mm 2 m/s 666 mmHg 16%
    18:00 +23°C° 0 mm 2 m/s 666 mmHg 18%
    19:00 +21°C° 0 mm 1 m/s 666 mmHg 21%
    20:00 +20°C° 0 mm 1 m/s 666 mmHg 21%
    21:00 +19°C° 0 mm 2 m/s 666 mmHg 21%
    22:00 +18°C° 0 mm 2 m/s 666 mmHg 21%
    23:00 +18°C° 0 mm 2 m/s 666 mmHg 22%

    25 Junho, Segunda-feira

    Tempo Temperatura Precipitação Vento Pressão Humidade
    00:00 +17°C° 0 mm 2 m/s 666 mmHg 22%
    01:00 +17°C° 0 mm 2 m/s 665 mmHg 22%
    02:00 +16°C° 0 mm 3 m/s 665 mmHg 23%
    03:00 +16°C° 0 mm 3 m/s 665 mmHg 23%
    04:00 +14°C° 0 mm 3 m/s 665 mmHg 24%
    05:00 +14°C° 0 mm 3 m/s 665 mmHg 25%
    06:00 +14°C° 0 mm 3 m/s 665 mmHg 26%
    07:00 +14°C° 0 mm 3 m/s 665 mmHg 27%
    08:00 +17°C° 0 mm 3 m/s 666 mmHg 23%
    09:00 +20°C° 0 mm 3 m/s 667 mmHg 20%
    10:00 +24°C° 0 mm 3 m/s 668 mmHg 16%
    11:00 +25°C° 0 mm 3 m/s 668 mmHg 14%
    12:00 +26°C° 0 mm 3 m/s 667 mmHg 13%
    13:00 +27°C° 0 mm 4 m/s 667 mmHg 11%
    14:00 +27°C° 0 mm 4 m/s 667 mmHg 12%
    15:00 +26°C° 0 mm 5 m/s 666 mmHg 13%
    16:00 +26°C° 0 mm 5 m/s 666 mmHg 14%
    17:00 +23°C° 0 mm 4 m/s 666 mmHg 19%
    18:00 +21°C° 0 mm 3 m/s 666 mmHg 23%
    19:00 +19°C° 0 mm 2 m/s 666 mmHg 27%
    20:00 +18°C° 0 mm 2 m/s 666 mmHg 30%
    21:00 +18°C° 0 mm 1 m/s 666 mmHg 33%
    22:00 +16°C° 0 mm 1 m/s 666 mmHg 36%
    23:00 +15°C° 0 mm 1 m/s 666 mmHg 35%
    Mostrar mais